| time (UTC) | temp C | wind direction | speed KPH | gust KPH | rain 1hr cm | rain 24hr cm | rain mn cm | humidity % | barometer mb |
| 20260906115356 | 15 | 205 | 0.0 | 0.0 | 0.05 | 0.05 | 0.05 | 66 | 1014.7 |
| 20260906114357 | 15 | 46 | 0.0 | 0.0 | 0.05 | 0.05 | 0.05 | 67 | 1014.5 |
| 20260906113358 | 15 | 93 | 0.0 | 0.0 | 0.05 | 0.05 | 0.05 | 68 | 1014.5 |
| 20260906112356 | 15 | 79 | 0.0 | 0.0 | 0.03 | 0.03 | 0.03 | 70 | 1014.6 |
| 20260906111356 | 15 | 65 | 0.0 | 0.0 | 0.00 | 0.00 | 0.00 | 71 | 1014.4 |
| 20260906110355 | 15 | 68 | 0.0 | 1.6 | 0.00 | 0.00 | 0.00 | 71 | 1014.2 |
| 20260906105351 | 15 | 68 | 0.0 | 0.0 | 0.00 | 0.00 | 0.00 | 72 | 1014.2 |
| 20260906104351 | 15 | 65 | 0.0 | 0.0 | 0.00 | 0.00 | 0.00 | 73 | 1014.1 |
| 20260906103350 | 16 | 75 | 0.0 | 0.0 | 0.00 | 0.00 | 0.00 | 74 | 1013.8 |
| 20260906102852 | 16 | 75 | 0.0 | 1.6 | 0.00 | 0.00 | 0.00 | 75 | 1013.6 |
| 20260906101350 | 16 | 78 | 0.0 | 4.8 | 0.00 | 0.00 | 0.00 | 75 | 1013.7 |
| 20260906100403 | 16 | 88 | 1.6 | 8.0 | 0.00 | 0.00 | 0.00 | 74 | 1013.6 |
| 20260906095350 | 16 | 86 | 0.0 | 3.2 | 0.00 | 0.00 | 0.00 | 71 | 1013.5 |
| 20260906094351 | 15 | 114 | 0.0 | 3.2 | 0.00 | 0.00 | 0.00 | 68 | 1013.6 |
| 20260906093351 | 15 | 42 | 0.0 | 3.2 | 0.00 | 0.00 | 0.00 | 66 | 1013.4 |
| 20260906092344 | 15 | 80 | 0.0 | 1.6 | 0.00 | 0.00 | 0.00 | 65 | 1013.2 |
| 20260906091344 | 15 | 58 | 0.0 | 0.0 | 0.00 | 0.00 | 0.00 | 65 | 1013.2 |
| 20260906090845 | 15 | 59 | 0.0 | 0.0 | 0.00 | 0.00 | 0.00 | 65 | 1013.0 |
| 20260906085346 | 15 | 58 | 0.0 | 0.0 | 0.00 | 0.00 | 0.00 | 64 | 1012.9 |
| 20260906084344 | 15 | 58 | 0.0 | 0.0 | 0.00 | 0.00 | 0.00 | 64 | 1012.9 |
| 20260906083845 | 15 | 75 | 0.0 | 0.0 | 0.00 | 0.00 | 0.00 | 64 | 1012.8 |
| 20260906082344 | 15 | 62 | 0.0 | 1.6 | 0.00 | 0.00 | 0.00 | 64 | 1012.7 |
| 20260906081346 | 15 | 200 | 0.0 | 0.0 | 0.00 | 0.00 | 0.00 | 64 | 1012.7 |
| 20260906080345 | 15 | 200 | 0.0 | 0.0 | 0.00 | 0.00 | 0.00 | 64 | 1012.7 |
| 20260906075339 | 15 | 200 | 0.0 | 0.0 | 0.00 | 0.00 | 0.00 | 64 | 1012.7 |
| 20260906074340 | 15 | 200 | 0.0 | 0.0 | 0.00 | 0.00 | 0.00 | 64 | 1012.6 |
| 20260906073339 | 15 | 200 | 0.0 | 0.0 | 0.00 | 0.00 | 0.00 | 64 | 1012.6 |
| 20260906072339 | 15 | 200 | 0.0 | 0.0 | 0.00 | 0.00 | 0.00 | 64 | 1012.6 |
| 20260906071338 | 15 | 200 | 0.0 | 0.0 | 0.00 | 0.00 | 0.00 | 64 | 1012.5 |
| 20260906070340 | 15 | 200 | 0.0 | 0.0 | 0.00 | 0.00 | 0.00 | 64 | 1012.5 |
| 20260906065339 | 15 | 200 | 0.0 | 0.0 | 0.00 | 0.00 | 0.00 | 64 | 1012.6 |
| 20260906064841 | 16 | 200 | 0.0 | 0.0 | 0.00 | 0.00 | 0.00 | 64 | 1012.6 |
| 20260906063338 | 16 | 200 | 0.0 | 0.0 | 0.00 | 0.00 | 0.00 | 65 | 1012.6 |
| 20260906062835 | 16 | 200 | 0.0 | 0.0 | 0.00 | 0.00 | 0.00 | 65 | 1012.6 |
| 20260906061333 | 16 | 200 | 0.0 | 0.0 | 0.00 | 0.00 | 0.00 | 65 | 1012.6 |
| 20260906060332 | 16 | 200 | 0.0 | 0.0 | 0.00 | 0.00 | 0.00 | 66 | 1012.6 |
| 20260906055333 | 16 | 232 | 0.0 | 1.6 | 0.00 | 0.00 | 0.00 | 66 | 1012.8 |
| 20260906054334 | 16 | 313 | 0.0 | 0.0 | 0.00 | 0.00 | 0.00 | 67 | 1012.9 |
| 20260906053337 | 16 | 314 | 0.0 | 0.0 | 0.00 | 0.00 | 0.00 | 67 | 1012.9 |
| 20260906052333 | 16 | 314 | 0.0 | 0.0 | 0.00 | 0.00 | 0.00 | 68 | 1013.0 |
| 20260906051334 | 16 | 314 | 0.0 | 0.0 | 0.00 | 0.00 | 0.00 | 68 | 1012.9 |
| 20260906050833 | 16 | 82 | 0.0 | 0.0 | 0.00 | 0.00 | 0.00 | 67 | 1013.0 |
| 20260906045327 | 16 | 80 | 0.0 | 0.0 | 0.00 | 0.00 | 0.00 | 66 | 1012.9 |
| 20260906044326 | 16 | 81 | 0.0 | 0.0 | 0.00 | 0.00 | 0.00 | 66 | 1012.8 |
| 20260906043327 | 16 | 80 | 0.0 | 0.0 | 0.00 | 0.00 | 0.00 | 66 | 1012.7 |
| 20260906042829 | 16 | 80 | 0.0 | 0.0 | 0.00 | 0.00 | 0.00 | 67 | 1012.7 |
| 20260906041828 | 16 | 80 | 0.0 | 0.0 | 0.00 | 0.00 | 0.00 | 67 | 1012.7 |
| 20260906040328 | 16 | 80 | 0.0 | 0.0 | 0.00 | 0.00 | 0.00 | 68 | 1012.6 |
| 20260906035827 | 16 | 80 | 0.0 | 0.0 | 0.00 | 0.00 | 0.00 | 68 | 1012.6 |
| 20260906034324 | 16 | 80 | 0.0 | 0.0 | 0.00 | 0.00 | 0.00 | 69 | 1012.6 |
| 20260906033323 | 16 | 81 | 0.0 | 0.0 | 0.00 | 0.00 | 0.00 | 70 | 1012.5 |
| 20260906032318 | 16 | 90 | 0.0 | 0.0 | 0.00 | 0.00 | 0.00 | 70 | 1012.5 |
| 20260906031318 | 16 | 90 | 0.0 | 0.0 | 0.00 | 0.00 | 0.00 | 70 | 1012.5 |
| 20260906030331 | 16 | 98 | 0.0 | 0.0 | 0.00 | 0.00 | 0.00 | 70 | 1012.5 |
| 20260906025321 | 16 | 99 | 0.0 | 0.0 | 0.00 | 0.00 | 0.00 | 70 | 1012.6 |
| 20260906024319 | 17 | 99 | 0.0 | 0.0 | 0.00 | 0.00 | 0.00 | 70 | 1012.6 |
| 20260906023318 | 17 | 99 | 0.0 | 0.0 | 0.00 | 0.00 | 0.00 | 71 | 1012.6 |
| 20260906022319 | 17 | 98 | 0.0 | 0.0 | 0.00 | 0.00 | 0.00 | 71 | 1012.6 |
| 20260906021318 | 17 | 98 | 0.0 | 0.0 | 0.00 | 0.00 | 0.00 | 72 | 1012.5 |
| 20260906020319 | 17 | 98 | 0.0 | 0.0 | 0.00 | 0.00 | 0.00 | 72 | 1012.5 |
| 20260906015316 | 17 | 49 | 0.0 | 0.0 | 0.00 | 0.00 | 0.00 | 72 | 1012.6 |
| 20260906014312 | 17 | 46 | 0.0 | 0.0 | 0.00 | 0.00 | 0.00 | 72 | 1012.7 |
| 20260906013314 | 17 | 46 | 0.0 | 0.0 | 0.00 | 0.00 | 0.00 | 72 | 1012.5 |
| 20260906012312 | 17 | 41 | 0.0 | 0.0 | 0.00 | 0.00 | 0.00 | 71 | 1012.3 |
| 20260906011313 | 17 | 41 | 0.0 | 0.0 | 0.00 | 0.00 | 0.00 | 71 | 1012.4 |
| 20260906010313 | 17 | 83 | 0.0 | 0.0 | 0.00 | 0.00 | 0.00 | 71 | 1012.3 |
| 20260906005312 | 16 | 84 | 0.0 | 0.0 | 0.00 | 0.00 | 0.00 | 72 | 1012.4 |
| 20260906004311 | 16 | 84 | 0.0 | 0.0 | 0.00 | 0.00 | 0.00 | 71 | 1012.3 |
| 20260906003810 | 16 | 83 | 0.0 | 0.0 | 0.00 | 0.00 | 0.00 | 70 | 1012.1 |
| 20260906002306 | 16 | 84 | 0.0 | 0.0 | 0.00 | 0.00 | 0.00 | 70 | 1012.3 |
| 20260906001304 | 16 | 84 | 0.0 | 0.0 | 0.00 | 0.00 | 0.00 | 71 | 1012.1 |
| 20260906000305 | 16 | 84 | 0.0 | 0.0 | 0.00 | 0.00 | 0.00 | 71 | 1012.1 |
| 20260905235306 | 16 | 83 | 0.0 | 0.0 | 0.00 | 0.00 | 0.00 | 72 | 1012.0 |
| 20260905234304 | 16 | 84 | 0.0 | 0.0 | 0.00 | 0.00 | 0.00 | 73 | 1011.9 |
| 20260905233810 | 16 | 83 | 0.0 | 0.0 | 0.00 | 0.00 | 0.00 | 73 | 1011.9 |
| 20260905232306 | 17 | 84 | 0.0 | 0.0 | 0.00 | 0.00 | 0.00 | 74 | 1011.9 |
| 20260905231307 | 17 | 84 | 0.0 | 0.0 | 0.00 | 0.00 | 0.00 | 75 | 1011.8 |
| 20260905230305 | 17 | 84 | 0.0 | 0.0 | 0.00 | 0.00 | 0.00 | 75 | 1011.9 |
| 20260905225259 | 17 | 82 | 0.0 | 1.6 | 0.00 | 0.00 | 0.00 | 76 | 1011.9 |
| 20260905224259 | 18 | 81 | 0.0 | 3.2 | 0.00 | 0.00 | 0.00 | 76 | 1011.9 |
| 20260905223800 | 18 | 97 | 0.0 | 3.2 | 0.00 | 0.00 | 0.00 | 76 | 1012.0 |
| 20260905223413 | 18 | 61 | 0.0 | 4.8 | 0.00 | 0.00 | 0.00 | 76 | 1012.0 |
| 20260905221300 | 18 | 97 | 0.0 | 3.2 | 0.00 | 0.00 | 0.00 | 76 | 1011.9 |
| 20260905220300 | 18 | 80 | 1.6 | 6.4 | 0.00 | 0.00 | 0.00 | 76 | 1011.7 |
| 20260905215259 | 18 | 176 | 1.6 | 6.4 | 0.00 | 0.00 | 0.00 | 76 | 1011.4 |
| 20260905214258 | 18 | 142 | 1.6 | 9.7 | 0.00 | 0.00 | 0.00 | 76 | 1011.3 |
| 20260905213259 | 18 | 95 | 3.2 | 12.9 | 0.00 | 0.00 | 0.00 | 76 | 1011.3 |
| 20260905212255 | 19 | 351 | 3.2 | 12.9 | 0.00 | 0.00 | 0.00 | 75 | 1011.0 |
| 20260905211254 | 19 | 46 | 6.4 | 17.7 | 0.00 | 0.00 | 0.00 | 75 | 1011.1 |
| 20260905210254 | 19 | 68 | 6.4 | 24.1 | 0.00 | 0.00 | 0.00 | 75 | 1011.0 |
| 20260905205252 | 19 | 80 | 4.8 | 22.5 | 0.00 | 0.00 | 0.00 | 75 | 1010.8 |
| 20260905204253 | 20 | 285 | 4.8 | 19.3 | 0.00 | 0.00 | 0.00 | 75 | 1010.8 |
| 20260905203253 | 20 | 117 | 4.8 | 17.7 | 0.00 | 0.00 | 0.00 | 75 | 1010.5 |
| 20260905202753 | 20 | 73 | 4.8 | 14.5 | 0.00 | 0.00 | 0.00 | 74 | 1010.5 |
| 20260905202408 | 20 | 81 | 3.2 | 12.9 | 0.00 | 0.00 | 0.00 | 74 | 1010.4 |
| 20260905200251 | 20 | 226 | 3.2 | 17.7 | 0.00 | 0.00 | 0.00 | 75 | 1010.4 |
| 20260905195250 | 20 | 4 | 1.6 | 11.3 | 0.00 | 0.00 | 0.00 | 75 | 1010.4 |
| 20260905194249 | 20 | 93 | 4.8 | 22.5 | 0.00 | 0.00 | 0.00 | 75 | 1010.3 |
| 20260905193251 | 20 | 74 | 3.2 | 11.3 | 0.00 | 0.00 | 0.00 | 75 | 1010.4 |
| 20260905192249 | 20 | 68 | 4.8 | 17.7 | 0.00 | 0.00 | 0.00 | 75 | 1010.5 |
| 20260905191249 | 21 | 265 | 4.8 | 17.7 | 0.00 | 0.00 | 0.00 | 75 | 1010.5 |
| 20260905190251 | 21 | 37 | 3.2 | 16.1 | 0.00 | 0.00 | 0.00 | 75 | 1010.5 |
| 20260905185248 | 21 | 179 | 4.8 | 17.7 | 0.00 | 0.00 | 0.00 | 75 | 1010.5 |
| 20260905184749 | 21 | 305 | 4.8 | 19.3 | 0.00 | 0.00 | 0.00 | 75 | 1010.4 |
| 20260905183247 | 21 | 105 | 3.2 | 9.7 | 0.00 | 0.00 | 0.00 | 75 | 1010.3 |
| 20260905182250 | 21 | 334 | 3.2 | 12.9 | 0.00 | 0.00 | 0.00 | 75 | 1010.5 |
| 20260905181248 | 21 | 95 | 3.2 | 12.9 | 0.00 | 0.00 | 0.00 | 75 | 1010.6 |
| 20260905180247 | 21 | 103 | 3.2 | 12.9 | 0.00 | 0.00 | 0.00 | 75 | 1010.6 |
| 20260905175746 | 21 | 269 | 3.2 | 11.3 | 0.00 | 0.00 | 0.00 | 75 | 1010.5 |
| 20260905174247 | 21 | 57 | 3.2 | 17.7 | 0.00 | 0.00 | 0.00 | 75 | 1010.2 |
| 20260905173244 | 21 | 43 | 3.2 | 16.1 | 0.00 | 0.00 | 0.00 | 75 | 1010.0 |
| 20260905172244 | 20 | 61 | 3.2 | 11.3 | 0.00 | 0.00 | 0.00 | 75 | 1010.0 |
| 20260905171245 | 20 | 43 | 3.2 | 12.9 | 0.00 | 0.00 | 0.00 | 75 | 1010.1 |
| 20260905170245 | 20 | 114 | 3.2 | 12.9 | 0.00 | 0.00 | 0.00 | 75 | 1010.1 |
| 20260905165241 | 20 | 72 | 3.2 | 17.7 | 0.00 | 0.00 | 0.00 | 75 | 1010.1 |
| 20260905164239 | 21 | 225 | 0.0 | 11.3 | 0.00 | 0.00 | 0.00 | 75 | 1010.1 |
| 20260905163241 | 21 | 155 | 3.2 | 12.9 | 0.00 | 0.00 | 0.00 | 75 | 1010.0 |
| 20260905162237 | 21 | 234 | 4.8 | 22.5 | 0.00 | 0.00 | 0.00 | 75 | 1009.9 |
| 20260905161237 | 21 | 78 | 4.8 | 19.3 | 0.00 | 0.00 | 0.00 | 75 | 1009.8 |
| 20260905160238 | 21 | 134 | 4.8 | 19.3 | 0.00 | 0.00 | 0.00 | 74 | 1009.8 |
| 20260905155236 | 22 | 65 | 4.8 | 24.1 | 0.00 | 0.00 | 0.00 | 74 | 1009.7 |
| 20260905154237 | 21 | 96 | 4.8 | 19.3 | 0.00 | 0.00 | 0.00 | 74 | 1009.6 |
| 20260905153239 | 22 | 69 | 3.2 | 19.3 | 0.00 | 0.00 | 0.00 | 73 | 1009.5 |
| 20260905152237 | 22 | 67 | 3.2 | 20.9 | 0.00 | 0.00 | 0.00 | 72 | 1009.4 |
| 20260905151238 | 22 | 59 | 3.2 | 12.9 | 0.00 | 0.00 | 0.00 | 72 | 1009.5 |
| 20260905150237 | 22 | 82 | 3.2 | 12.9 | 0.00 | 0.00 | 0.00 | 73 | 1009.3 |
| 20260905145237 | 22 | 86 | 3.2 | 14.5 | 0.00 | 0.00 | 0.00 | 73 | 1009.4 |
| 20260905144237 | 22 | 111 | 3.2 | 17.7 | 0.00 | 0.00 | 0.00 | 72 | 1009.6 |
| 20260905143238 | 22 | 84 | 4.8 | 20.9 | 0.00 | 0.00 | 0.00 | 72 | 1009.4 |
| 20260905142737 | 22 | 76 | 4.8 | 11.3 | 0.00 | 0.00 | 0.00 | 72 | 1009.4 |
| 20260905141236 | 22 | 77 | 3.2 | 14.5 | 0.00 | 0.00 | 0.00 | 72 | 1009.4 |
| 20260905140236 | 22 | 307 | 3.2 | 12.9 | 0.00 | 0.00 | 0.00 | 73 | 1009.4 |
| 20260905135236 | 22 | 288 | 1.6 | 9.7 | 0.00 | 0.00 | 0.00 | 74 | 1009.5 |
| 20260905134238 | 22 | 16 | 1.6 | 9.7 | 0.00 | 0.00 | 0.00 | 74 | 1009.5 |
| 20260905133236 | 21 | 87 | 1.6 | 8.0 | 0.00 | 0.00 | 0.00 | 75 | 1009.4 |
| 20260905132238 | 21 | 100 | 1.6 | 9.7 | 0.00 | 0.00 | 0.00 | 75 | 1009.3 |
| 20260905131240 | 21 | 102 | 1.6 | 8.0 | 0.00 | 0.00 | 0.00 | 75 | 1009.2 |
| 20260905130236 | 20 | 91 | 1.6 | 9.7 | 0.00 | 0.00 | 0.00 | 74 | 1009.2 |
| 20260905125238 | 20 | 96 | 1.6 | 6.4 | 0.00 | 0.00 | 0.00 | 74 | 1009.2 |
| 20260905124236 | 20 | 87 | 1.6 | 9.7 | 0.00 | 0.00 | 0.00 | 74 | 1009.0 |
| 20260905123236 | 19 | 142 | 0.0 | 8.0 | 0.00 | 0.00 | 0.00 | 73 | 1008.9 |
| 20260905122236 | 18 | 97 | 0.0 | 4.8 | 0.00 | 0.00 | 0.00 | 73 | 1008.8 |
| 20260905121237 | 18 | 264 | 0.0 | 6.4 | 0.00 | 0.00 | 0.00 | 72 | 1008.8 |